This is the latest recevied weather packets stored in our database for station/object KQ4OSL. If no packets are shown the sender has not sent any weather packets the latest 10 day(s).
| Time | Temp. | Humidity | Pressure | Rain* | Wind** | Luminosity | Snow |
|---|---|---|---|---|---|---|---|
| 1787522782 | 30° C | 68% | 1016.9 hPa | 0 mm | - | 120 W/m² | - |
| 1787522478 | 29.44° C | 77% | 1016.8 hPa | 0 mm | - | 102 W/m² | - |
| 1787522173 | 29.44° C | 71% | 1017 hPa | 0 mm | - | 50 W/m² | - |
| 1787521872 | 30° C | 68% | 1017 hPa | 0 mm | - | 49 W/m² | - |
| 1787521571 | 30° C | 68% | 1017 hPa | 0 mm | - | 124 W/m² | - |
| 1787521266 | 31.11° C | 66% | 1016.9 hPa | 0 mm | - | 56 W/m² | - |
| 1787520961 | 31.11° C | 66% | 1017 hPa | 0 mm | - | 265 W/m² | - |
| 1787520657 | 31.67° C | 64% | 1017 hPa | 0 mm | - | 278 W/m² | - |
| 1787520352 | 31.67° C | 64% | 1016.8 hPa | 0 mm | - | 287 W/m² | - |
| 1787520048 | 31.67° C | 64% | 1016.8 hPa | 0 mm | - | 304 W/m² | - |
| 1787519743 | 31.11° C | 65% | 1016.8 hPa | 0 mm | - | 324 W/m² | - |
| 1787519438 | 31.11° C | 65% | 1016.8 hPa | 0 mm | - | 338 W/m² | - |
| 1787519133 | 31.67° C | 68% | 1016.9 hPa | 0 mm | - | 351 W/m² | - |
| 1787518828 | 31.11° C | 68% | 1016.9 hPa | 0 mm | - | 362 W/m² | - |
| 1787518524 | 31.11° C | 68% | 1017 hPa | 0 mm | - | 388 W/m² | - |
| 1787518224 | 31.11° C | 69% | 1016.9 hPa | 0 mm | - | 414 W/m² | - |
| 1787517920 | 31.67° C | 67% | 1016.8 hPa | 0 mm | - | 421 W/m² | - |
| 1787517615 | 31.67° C | 69% | 1017 hPa | 0 mm | - | 432 W/m² | - |
| 1787517312 | 30.56° C | 70% | 1017.2 hPa | 0 mm | - | 162 W/m² | - |
| 1787517012 | 30° C | 70% | 1017.1 hPa | 0 mm | - | 137 W/m² | - |
| 1787516707 | 30° C | 70% | 1017.4 hPa | 0 mm | - | 155 W/m² | - |
| 1787516402 | 30° C | 71% | 1017.2 hPa | 0 mm | - | 182 W/m² | - |
| 1787516101 | 30.56° C | 70% | 1017.1 hPa | 0 mm | - | 133 W/m² | - |
| 1787515797 | 31.11° C | 68% | 1017.2 hPa | 0 mm | - | 121 W/m² | - |
| 1787515494 | 31.11° C | 69% | 1017.3 hPa | 0 mm | - | 547 W/m² | - |
* Rain latest hour (hover to see other rain measurements)
** Current wind speed in m/s (hover to see current wind gust speed)